Location: Vancouver
(49.2500°N, 123.1330°W)
Time: 11:29:51
(UTC-08:00)

Iridium 35 - Visible Passes

Search period start: 27 November 2014 00:00
Search period end: 07 December 2014 00:00
Orbit: 776 x 779 km, 86.4° (Epoch: 27 November)

Date Brightness Start Highest point End Pass type
(mag) Time Alt. Az. Time Alt. Az. Time Alt. Az.
27 Nov 7.3 05:28:22 10° NNE 05:32:35 24° ENE 05:36:47 10° SE visible
27 Nov 6.0 18:29:21 10° SSE 18:32:07 28° SE 18:32:07 28° SE visible
27 Nov 7.2 20:10:33 10° SW 20:12:42 21° WSW 20:12:42 21° WSW visible
28 Nov 7.8 04:55:45 10° NNE 04:58:39 15° ENE 05:01:33 10° E visible
28 Nov 5.0 06:34:55 10° N 06:40:10 88° W 06:45:22 10° S visible
28 Nov 6.0 17:56:44 10° SE 18:00:13 24° E 18:00:13 24° E visible
28 Nov 5.9 19:36:18 10° SSW 19:40:48 47° W 19:40:48 47° W visible
29 Nov 5.8 06:01:26 10° N 06:06:35 55° E 06:11:40 10° SSE visible
29 Nov 6.5 17:24:52 10° ESE 17:27:44 15° ENE 17:28:26 15° ENE visible
29 Nov 5.0 19:02:30 10° S 19:07:43 84° W 19:09:02 52° N visible
29 Nov 7.8 20:46:52 10° W 20:49:20 13° WNW 20:49:37 13° WNW visible
30 Nov 6.7 05:28:10 10° NNE 05:32:52 33° ENE 05:37:31 10° SE visible
30 Nov 5.0 18:29:08 10° SSE 18:34:13 58° E 18:37:27 22° NNE visible
30 Nov 7.2 20:11:22 10° WSW 20:15:22 22° WNW 20:18:04 15° NNW visible
01 Dec 7.5 04:55:12 10° NNE 04:59:01 20° ENE 05:02:48 10° ESE visible
01 Dec 5.0 06:35:04 10° N 06:40:14 64° W 06:45:22 10° S visible
01 Dec 5.6 17:56:13 10° SE 18:00:51 34° E 18:05:31 10° NNE visible
01 Dec 6.4 19:36:46 10° SW 19:41:32 36° WNW 19:46:20 10° N visible
02 Dec 8.0 04:23:02 10° NE 04:25:01 12° ENE 04:27:00 10° E visible
02 Dec 5.2 06:01:29 10° N 06:06:43 76° E 06:11:55 10° S visible
02 Dec 6.2 17:23:50 10° SE 17:27:36 21° ENE 17:31:22 10° NNE visible
02 Dec 5.5 19:02:42 10° SSW 19:07:51 61° W 19:13:01 10° N visible
03 Dec 6.1 05:28:04 10° N 05:33:05 44° E 05:38:02 10° SSE visible
03 Dec 5.9 07:09:14 10° NNW 07:13:35 28° W 07:17:55 10° SW visible
03 Dec 6.7 16:52:31 10° E 16:54:28 12° ENE 16:56:25 10° NE visible
03 Dec 4.9 18:29:05 10° S 18:34:16 80° E 18:39:31 10° N visible
03 Dec 7.6 20:12:29 10° WSW 20:15:42 16° WNW 20:18:55 10° NNW visible
04 Dec 7.0 04:54:54 10° NNE 04:59:18 27° ENE 05:03:41 10° SE visible
04 Dec 5.3 06:35:17 10° NNW 06:40:15 46° W 06:45:12 10° SSW visible
04 Dec 5.2 17:55:53 10° SSE 18:00:50 47° E 18:05:48 10° NNE visible
04 Dec 7.0 19:37:26 10° SW 19:41:47 27° WNW 19:46:10 10° NNW visible
05 Dec 7.7 04:22:08 10° NNE 04:25:24 17° ENE 04:28:39 10° ESE visible
05 Dec 4.9 06:01:34 10° N 06:06:48 79° W 06:12:00 10° S visible
05 Dec 5.9 17:23:09 10° SE 17:27:30 28° E 17:31:52 10° NNE visible
05 Dec 6.1 19:03:03 10° SSW 19:08:01 44° W 19:13:00 10° N visible
06 Dec 5.5 05:28:03 10° N 05:33:14 62° E 05:38:23 10° SSE visible
06 Dec 6.3 07:09:44 10° NNW 07:13:29 20° WNW 07:17:13 10° WSW visible
06 Dec 6.4 16:51:04 10° ESE 16:54:17 17° ENE 16:57:31 10° NE visible
06 Dec 5.2 18:29:10 10° S 18:34:22 75° W 18:39:36 10° N visible
06 Dec 8.0 20:14:10 10° W 20:16:04 12° WNW 20:17:59 10° NW visible
